owner,sensor,date,latitude,longitude,sea_surface_height_above_sea_level,qcFlag 
TCOON,ioos:station:TCOON:031:1,2016-01-01T00:18:00Z,28.4073,-96.7122,0.622,1111122 
TCOON,ioos:station:TCOON:031:1,2016-01-01T01:18:00Z,28.4073,-96.7122,0.635,1111122 
TCOON,ioos:station:TCOON:031:1,2016-01-01T02:18:00Z,28.4073,-96.7122,0.619,1111122 
TCOON,ioos:station:TCOON:031:1,2016-01-01T03:18:00Z,28.4073,-96.7122,0.598,1111122 
TCOON,ioos:station:TCOON:031:1,2016-01-01T04:18:00Z,28.4073,-96.7122,0.535,1111122 
TCOON,ioos:station:TCOON:031:1,2016-01-01T05:18:00Z,28.4073,-96.7122,0.624,1111122 
TCOON,ioos:station:TCOON:031:1,2016-01-01T06:18:00Z,28.4073,-96.7122,0.614,1111122 
TCOON,ioos:station:TCOON:031:1,2016-01-01T07:18:00Z,28.4073,-96.7122,0.607,1111122 
TCOON,ioos:station:TCOON:031:1,2016-01-01T08:18:00Z,28.4073,-96.7122,0.582,1111122 
TCOON,ioos:station:TCOON:031:1,2016-01-01T09:24:00Z,28.4073,-96.7122,0.63,1111122 
TCOON,ioos:station:TCOON:031:1,2016-01-01T10:18:00Z,28.4073,-96.7122,0.629,1111122 
TCOON,ioos:station:TCOON:031:1,2016-01-01T11:18:00Z,28.4073,-96.7122,0.594,1111122 
TCOON,ioos:station:TCOON:031:1,2016-01-01T12:18:00Z,28.4073,-96.7122,0.585,1111122 
TCOON,ioos:station:TCOON:031:1,2016-01-01T13:18:00Z,28.4073,-96.7122,0.565,1111122 
TCOON,ioos:station:TCOON:031:1,2016-01-01T14:18:00Z,28.4073,-96.7122,0.573,1111122 
TCOON,ioos:station:TCOON:031:1,2016-01-01T15:18:00Z,28.4073,-96.7122,0.54,1111122 
TCOON,ioos:station:TCOON:031:1,2016-01-01T16:18:00Z,28.4073,-96.7122,0.578,1111122 
TCOON,ioos:station:TCOON:031:1,2016-01-01T17:18:00Z,28.4073,-96.7122,0.602,1111122 
TCOON,ioos:station:TCOON:031:1,2016-01-01T18:18:00Z,28.4073,-96.7122,0.565,1111122 
TCOON,ioos:station:TCOON:031:1,2016-01-02T21:24:00Z,28.4073,-96.7122,0.578,1111122 
TCOON,ioos:station:TCOON:031:1,2016-01-02T22:18:00Z,28.4073,-96.7122,0.575,1111122 
TCOON,ioos:station:TCOON:031:1,2016-01-02T23:12:00Z,28.4073,-96.7122,0.566,1111122 
TCOON,ioos:station:TCOON:031:1,2016-01-03T00:18:00Z,28.4073,-96.7122,0.578,1111122 
TCOON,ioos:station:TCOON:031:1,2016-01-03T01:18:00Z,28.4073,-96.7122,0.573,1111122 
TCOON,ioos:station:TCOON:031:1,2016-01-03T02:18:00Z,28.4073,-96.7122,0.565,1111122 
TCOON,ioos:station:TCOON:031:1,2016-01-03T03:18:00Z,28.4073,-96.7122,0.561,1111122 
TCOON,ioos:station:TCOON:031:1,2016-01-03T04:18:00Z,28.4073,-96.7122,0.553,1111122 
TCOON,ioos:station:TCOON:031:1,2016-01-03T05:18:00Z,28.4073,-96.7122,0.565,1111122 
TCOON,ioos:station:TCOON:031:1,2016-01-03T06:18:00Z,28.4073,-96.7122,0.513,1111122 
TCOON,ioos:station:TCOON:031:1,2016-01-03T07:18:00Z,28.4073,-96.7122,0.555,1111122 
TCOON,ioos:station:TCOON:031:1,2016-01-03T08:18:00Z,28.4073,-96.7122,0.574,1111122 
TCOON,ioos:station:TCOON:031:1,2016-01-03T09:24:00Z,28.4073,-96.7122,0.58,1111122 
TCOON,ioos:station:TCOON:031:1,2016-01-03T10:18:00Z,28.4073,-96.7122,0.586,1111122 
TCOON,ioos:station:TCOON:031:1,2016-01-03T11:18:00Z,28.4073,-96.7122,0.578,1111122 
TCOON,ioos:station:TCOON:031:1,2016-01-03T12:18:00Z,28.4073,-96.7122,0.582,1111122 
TCOON,ioos:station:TCOON:031:1,2016-01-03T13:24:00Z,28.4073,-96.7122,0.562,1111122 
TCOON,ioos:station:TCOON:031:1,2016-01-03T14:18:00Z,28.4073,-96.7122,0.595,1111122 
TCOON,ioos:station:TCOON:031:1,2016-01-03T15:18:00Z,28.4073,-96.7122,0.585,1111122 
TCOON,ioos:station:TCOON:031:1,2016-01-03T16:18:00Z,28.4073,-96.7122,0.578,1111122 
TCOON,ioos:station:TCOON:031:1,2016-01-03T17:18:00Z,28.4073,-96.7122,0.567,1111122 
TCOON,ioos:station:TCOON:031:1,2016-01-03T18:18:00Z,28.4073,-96.7122,0.581,1111122 
TCOON,ioos:station:TCOON:031:1,2016-01-03T19:18:00Z,28.4073,-96.7122,0.57,1111122 
TCOON,ioos:station:TCOON:031:1,2016-01-03T20:18:00Z,28.4073,-96.7122,0.558,1111122 
TCOON,ioos:station:TCOON:031:1,2016-01-03T21:18:00Z,28.4073,-96.7122,0.569,1111122 
TCOON,ioos:station:TCOON:031:1,2016-01-03T22:18:00Z,28.4073,-96.7122,0.573,1111122 
TCOON,ioos:station:TCOON:031:1,2016-01-03T23:18:00Z,28.4073,-96.7122,0.562,1111122 
TCOON,ioos:station:TCOON:031:1,2016-01-04T00:18:00Z,28.4073,-96.7122,0.566,1111122 
TCOON,ioos:station:TCOON:031:1,2016-01-04T01:18:00Z,28.4073,-96.7122,0.575,1111122 
TCOON,ioos:station:TCOON:031:1,2016-01-04T02:18:00Z,28.4073,-96.7122,0.573,1111122 
TCOON,ioos:station:TCOON:031:1,2016-01-04T03:42:00Z,28.4073,-96.7122,0.577,1111122 
TCOON,ioos:station:TCOON:031:1,2016-01-04T04:18:00Z,28.4073,-96.7122,0.579,1111122 
TCOON,ioos:station:TCOON:031:1,2016-01-04T05:12:00Z,28.4073,-96.7122,0.585,1111122 
TCOON,ioos:station:TCOON:031:1,2016-01-04T06:18:00Z,28.4073,-96.7122,0.565,1111122 
TCOON,ioos:station:TCOON:031:1,2016-01-04T07:18:00Z,28.4073,-96.7122,0.569,1111122 
TCOON,ioos:station:TCOON:031:1,2016-01-04T08:18:00Z,28.4073,-96.7122,0.566,1111122 
TCOON,ioos:station:TCOON:031:1,2016-01-04T09:24:00Z,28.4073,-96.7122,0.57,1111122 
TCOON,ioos:station:TCOON:031:1,2016-01-04T10:18:00Z,28.4073,-96.7122,0.56,1111122 
TCOON,ioos:station:TCOON:031:1,2016-01-04T11:18:00Z,28.4073,-96.7122,0.543,1111122 
TCOON,ioos:station:TCOON:031:1,2016-01-04T12:12:00Z,28.4073,-96.7122,0.533,1111122 
TCOON,ioos:station:TCOON:031:1,2016-01-04T13:18:00Z,28.4073,-96.7122,0.509,1111122 
TCOON,ioos:station:TCOON:031:1,2016-01-04T14:18:00Z,28.4073,-96.7122,0.487,1111122 
TCOON,ioos:station:TCOON:031:1,2016-01-04T15:18:00Z,28.4073,-96.7122,0.457,1111122 
TCOON,ioos:station:TCOON:031:1,2016-01-04T16:18:00Z,28.4073,-96.7122,0.472,1111122 
TCOON,ioos:station:TCOON:031:1,2016-01-04T17:18:00Z,28.4073,-96.7122,0.498,1111122 
TCOON,ioos:station:TCOON:031:1,2016-01-04T18:18:00Z,28.4073,-96.7122,0.515,1111122 
TCOON,ioos:station:TCOON:031:1,2016-01-04T19:18:00Z,28.4073,-96.7122,0.494,1111122 
TCOON,ioos:station:TCOON:031:1,2016-01-04T20:18:00Z,28.4073,-96.7122,0.484,1111122 
TCOON,ioos:station:TCOON:031:1,2016-01-04T21:18:00Z,28.4073,-96.7122,0.484,1111122 
TCOON,ioos:station:TCOON:031:1,2016-01-04T22:12:00Z,28.4073,-96.7122,0.495,1111122 
TCOON,ioos:station:TCOON:031:1,2016-01-04T23:18:00Z,28.4073,-96.7122,0.488,1111122 
TCOON,ioos:station:TCOON:031:1,2016-01-05T00:18:00Z,28.4073,-96.7122,0.486,1111122 
TCOON,ioos:station:TCOON:031:1,2016-01-05T01:18:00Z,28.4073,-96.7122,0.488,1111122 
TCOON,ioos:station:TCOON:031:1,2016-01-05T02:18:00Z,28.4073,-96.7122,0.494,1111122 
TCOON,ioos:station:TCOON:031:1,2016-01-05T03:18:00Z,28.4073,-96.7122,0.496,1111122 
TCOON,ioos:station:TCOON:031:1,2016-01-05T04:18:00Z,28.4073,-96.7122,0.503,1111122 
TCOON,ioos:station:TCOON:031:1,2016-01-05T05:18:00Z,28.4073,-96.7122,0.52,1111122 
TCOON,ioos:station:TCOON:031:1,2016-01-05T06:12:00Z,28.4073,-96.7122,0.526,1111122 
TCOON,ioos:station:TCOON:031:1,2016-01-05T07:18:00Z,28.4073,-96.7122,0.529,1111122 
TCOON,ioos:station:TCOON:031:1,2016-01-05T08:18:00Z,28.4073,-96.7122,0.538,1111122 
TCOON,ioos:station:TCOON:031:1,2016-01-05T10:06:00Z,28.4073,-96.7122,0.531,1111122 
TCOON,ioos:station:TCOON:031:1,2016-01-05T11:18:00Z,28.4073,-96.7122,0.521,1111122 
TCOON,ioos:station:TCOON:031:1,2016-01-05T12:12:00Z,28.4073,-96.7122,0.516,1111122 
TCOON,ioos:station:TCOON:031:1,2016-01-05T13:18:00Z,28.4073,-96.7122,0.506,1111122 
TCOON,ioos:station:TCOON:031:1,2016-01-05T14:18:00Z,28.4073,-96.7122,0.518,1111122 
TCOON,ioos:station:TCOON:031:1,2016-01-05T15:18:00Z,28.4073,-96.7122,0.52,1111122 
TCOON,ioos:station:TCOON:031:1,2016-01-05T16:18:00Z,28.4073,-96.7122,0.521,1111122 
TCOON,ioos:station:TCOON:031:1,2016-01-06T15:18:00Z,28.4073,-96.7122,0.643,1111122 
TCOON,ioos:station:TCOON:031:1,2016-01-06T16:18:00Z,28.4073,-96.7122,0.648,1111122 
TCOON,ioos:station:TCOON:031:1,2016-01-06T17:18:00Z,28.4073,-96.7122,0.647,1111122 
TCOON,ioos:station:TCOON:031:1,2016-01-06T18:18:00Z,28.4073,-96.7122,0.667,1111122 
TCOON,ioos:station:TCOON:031:1,2016-01-06T19:18:00Z,28.4073,-96.7122,0.656,1111122 
TCOON,ioos:station:TCOON:031:1,2016-01-06T20:18:00Z,28.4073,-96.7122,0.662,1111122 
TCOON,ioos:station:TCOON:031:1,2016-01-06T21:18:00Z,28.4073,-96.7122,0.664,1111122 
TCOON,ioos:station:TCOON:031:1,2016-01-06T22:12:00Z,28.4073,-96.7122,0.658,1111122 
TCOON,ioos:station:TCOON:031:1,2016-01-06T23:18:00Z,28.4073,-96.7122,0.673,1111122 
TCOON,ioos:station:TCOON:031:1,2016-01-07T00:18:00Z,28.4073,-96.7122,0.673,1111122 
TCOON,ioos:station:TCOON:031:1,2016-01-07T01:18:00Z,28.4073,-96.7122,0.706,1111122 
TCOON,ioos:station:TCOON:031:1,2016-01-07T02:18:00Z,28.4073,-96.7122,0.672,1111122 
TCOON,ioos:station:TCOON:031:1,2016-01-07T03:18:00Z,28.4073,-96.7122,0.695,1111122 
TCOON,ioos:station:TCOON:031:1,2016-01-07T04:18:00Z,28.4073,-96.7122,0.696,1111122 
TCOON,ioos:station:TCOON:031:1,2016-01-07T05:18:00Z,28.4073,-96.7122,0.729,1111122 
TCOON,ioos:station:TCOON:031:1,2016-01-07T06:18:00Z,28.4073,-96.7122,0.732,1111122 
TCOON,ioos:station:TCOON:031:1,2016-01-07T07:18:00Z,28.4073,-96.7122,0.754,1111122 
TCOON,ioos:station:TCOON:031:1,2016-01-07T08:18:00Z,28.4073,-96.7122,0.751,1111122 
TCOON,ioos:station:TCOON:031:1,2016-01-07T09:24:00Z,28.4073,-96.7122,0.763,1111122 
TCOON,ioos:station:TCOON:031:1,2016-01-07T10:18:00Z,28.4073,-96.7122,0.763,1111122 
TCOON,ioos:station:TCOON:031:1,2016-01-07T11:18:00Z,28.4073,-96.7122,0.764,1111122 
TCOON,ioos:station:TCOON:031:1,2016-01-07T12:30:00Z,28.4073,-96.7122,0.764,1111122 
TCOON,ioos:station:TCOON:031:1,2016-01-07T13:18:00Z,28.4073,-96.7122,0.764,1111122 
TCOON,ioos:station:TCOON:031:1,2016-01-07T14:18:00Z,28.4073,-96.7122,0.746,1111122 
TCOON,ioos:station:TCOON:031:1,2016-01-07T15:18:00Z,28.4073,-96.7122,0.736,1111122 
TCOON,ioos:station:TCOON:031:1,2016-01-07T16:18:00Z,28.4073,-96.7122,0.724,1111122 
TCOON,ioos:station:TCOON:031:1,2016-01-07T17:18:00Z,28.4073,-96.7122,0.727,1111122 
TCOON,ioos:station:TCOON:031:1,2016-01-07T18:18:00Z,28.4073,-96.7122,0.716,1111122 
TCOON,ioos:station:TCOON:031:1,2016-01-07T19:18:00Z,28.4073,-96.7122,0.709,1111122 
TCOON,ioos:station:TCOON:031:1,2016-01-07T20:18:00Z,28.4073,-96.7122,0.701,1111122 
TCOON,ioos:station:TCOON:031:1,2016-01-07T21:18:00Z,28.4073,-96.7122,0.702,1111122 
TCOON,ioos:station:TCOON:031:1,2016-01-07T22:18:00Z,28.4073,-96.7122,0.698,1111122 
TCOON,ioos:station:TCOON:031:1,2016-01-07T23:18:00Z,28.4073,-96.7122,0.714,1111122 
TCOON,ioos:station:TCOON:031:1,2016-01-08T00:18:00Z,28.4073,-96.7122,0.708,1111122 
TCOON,ioos:station:TCOON:031:1,2016-01-08T01:18:00Z,28.4073,-96.7122,0.734,1111122 
TCOON,ioos:station:TCOON:031:1,2016-01-08T02:18:00Z,28.4073,-96.7122,0.738,1111122 
TCOON,ioos:station:TCOON:031:1,2016-01-08T03:18:00Z,28.4073,-96.7122,0.743,1111122 
TCOON,ioos:station:TCOON:031:1,2016-01-08T04:18:00Z,28.4073,-96.7122,0.746,1111122 
TCOON,ioos:station:TCOON:031:1,2016-01-08T05:18:00Z,28.4073,-96.7122,0.753,1111122 
TCOON,ioos:station:TCOON:031:1,2016-01-08T06:24:00Z,28.4073,-96.7122,0.767,1111122 
TCOON,ioos:station:TCOON:031:1,2016-01-08T07:24:00Z,28.4073,-96.7122,0.779,1111122 
TCOON,ioos:station:TCOON:031:1,2016-01-08T08:18:00Z,28.4073,-96.7122,0.779,1111122 
TCOON,ioos:station:TCOON:031:1,2016-01-08T09:24:00Z,28.4073,-96.7122,0.784,1111122 
TCOON,ioos:station:TCOON:031:1,2016-01-08T10:18:00Z,28.4073,-96.7122,0.791,1111122 
TCOON,ioos:station:TCOON:031:1,2016-01-08T11:18:00Z,28.4073,-96.7122,0.785,1111122 
TCOON,ioos:station:TCOON:031:1,2016-01-08T12:18:00Z,28.4073,-96.7122,0.783,1111122 
TCOON,ioos:station:TCOON:031:1,2016-01-08T13:18:00Z,28.4073,-96.7122,0.779,1111122 
TCOON,ioos:station:TCOON:031:1,2016-01-08T14:18:00Z,28.4073,-96.7122,0.762,1111122 
TCOON,ioos:station:TCOON:031:1,2016-01-08T15:18:00Z,28.4073,-96.7122,0.749,1111122 
TCOON,ioos:station:TCOON:031:1,2016-01-08T16:18:00Z,28.4073,-96.7122,0.732,1111122 
TCOON,ioos:station:TCOON:031:1,2016-01-08T17:18:00Z,28.4073,-96.7122,0.719,1111122 
TCOON,ioos:station:TCOON:031:1,2016-01-08T18:18:00Z,28.4073,-96.7122,0.705,1111122 
TCOON,ioos:station:TCOON:031:1,2016-01-08T19:18:00Z,28.4073,-96.7122,0.698,1111122 
TCOON,ioos:station:TCOON:031:1,2016-01-08T20:18:00Z,28.4073,-96.7122,0.691,1111122 
TCOON,ioos:station:TCOON:031:1,2016-01-08T21:18:00Z,28.4073,-96.7122,0.679,1111122 
TCOON,ioos:station:TCOON:031:1,2016-01-08T22:18:00Z,28.4073,-96.7122,0.69,1111122 
TCOON,ioos:station:TCOON:031:1,2016-01-08T23:18:00Z,28.4073,-96.7122,0.684,1111122 
TCOON,ioos:station:TCOON:031:1,2016-01-09T00:18:00Z,28.4073,-96.7122,0.68,1111122 
TCOON,ioos:station:TCOON:031:1,2016-01-09T01:18:00Z,28.4073,-96.7122,0.679,1111122 
TCOON,ioos:station:TCOON:031:1,2016-01-09T02:18:00Z,28.4073,-96.7122,0.689,1111122 
TCOON,ioos:station:TCOON:031:1,2016-01-09T03:18:00Z,28.4073,-96.7122,0.697,1111122 
TCOON,ioos:station:TCOON:031:1,2016-01-09T04:18:00Z,28.4073,-96.7122,0.718,1111122 
TCOON,ioos:station:TCOON:031:1,2016-01-09T05:18:00Z,28.4073,-96.7122,0.732,1111122 
TCOON,ioos:station:TCOON:031:1,2016-01-09T06:18:00Z,28.4073,-96.7122,0.726,1111122 
TCOON,ioos:station:TCOON:031:1,2016-01-09T07:18:00Z,28.4073,-96.7122,0.696,1111122 
TCOON,ioos:station:TCOON:031:1,2016-01-09T08:18:00Z,28.4073,-96.7122,0.7,1111122 
TCOON,ioos:station:TCOON:031:1,2016-01-09T09:24:00Z,28.4073,-96.7122,0.682,1111122 
TCOON,ioos:station:TCOON:031:1,2016-01-09T10:18:00Z,28.4073,-96.7122,0.696,1111122 
TCOON,ioos:station:TCOON:031:1,2016-01-09T11:18:00Z,28.4073,-96.7122,0.722,1111122 
TCOON,ioos:station:TCOON:031:1,2016-01-09T12:18:00Z,28.4073,-96.7122,0.686,1111122 
TCOON,ioos:station:TCOON:031:1,2016-01-09T13:18:00Z,28.4073,-96.7122,0.668,1111122 
TCOON,ioos:station:TCOON:031:1,2016-01-09T14:18:00Z,28.4073,-96.7122,0.678,1111122 
TCOON,ioos:station:TCOON:031:1,2016-01-09T15:18:00Z,28.4073,-96.7122,0.676,1111122 
TCOON,ioos:station:TCOON:031:1,2016-01-09T16:18:00Z,28.4073,-96.7122,0.62,1111122 
TCOON,ioos:station:TCOON:031:1,2016-01-09T17:18:00Z,28.4073,-96.7122,0.562,1111122 
TCOON,ioos:station:TCOON:031:1,2016-01-09T18:24:00Z,28.4073,-96.7122,0.553,1111122 
TCOON,ioos:station:TCOON:031:1,2016-01-09T19:18:00Z,28.4073,-96.7122,0.582,1111122 
TCOON,ioos:station:TCOON:031:1,2016-01-09T20:18:00Z,28.4073,-96.7122,0.583,1111122 
TCOON,ioos:station:TCOON:031:1,2016-01-09T21:18:00Z,28.4073,-96.7122,0.581,1111122 
TCOON,ioos:station:TCOON:031:1,2016-01-09T22:18:00Z,28.4073,-96.7122,0.553,1111122 
TCOON,ioos:station:TCOON:031:1,2016-01-09T23:18:00Z,28.4073,-96.7122,0.53,1111122 
TCOON,ioos:station:TCOON:031:1,2016-01-10T00:18:00Z,28.4073,-96.7122,0.501,1111122 
TCOON,ioos:station:TCOON:031:1,2016-01-10T01:18:00Z,28.4073,-96.7122,0.464,1111122 
TCOON,ioos:station:TCOON:031:1,2016-01-10T02:18:00Z,28.4073,-96.7122,0.461,1111122 
TCOON,ioos:station:TCOON:031:1,2016-01-10T03:18:00Z,28.4073,-96.7122,0.492,1111122 
TCOON,ioos:station:TCOON:031:1,2016-01-10T04:18:00Z,28.4073,-96.7122,0.486,1111122 
TCOON,ioos:station:TCOON:031:1,2016-01-10T05:18:00Z,28.4073,-96.7122,0.504,1111122 
TCOON,ioos:station:TCOON:031:1,2016-01-10T06:18:00Z,28.4073,-96.7122,0.473,1111122 
TCOON,ioos:station:TCOON:031:1,2016-01-10T07:18:00Z,28.4073,-96.7122,0.402,1111122 
TCOON,ioos:station:TCOON:031:1,2016-01-10T08:18:00Z,28.4073,-96.7122,0.423,1111122 
TCOON,ioos:station:TCOON:031:1,2016-01-10T09:24:00Z,28.4073,-96.7122,0.471,1111122 
TCOON,ioos:station:TCOON:031:1,2016-01-10T10:18:00Z,28.4073,-96.7122,0.485,1111122 
TCOON,ioos:station:TCOON:031:1,2016-01-10T11:18:00Z,28.4073,-96.7122,0.467,1111122 
TCOON,ioos:station:TCOON:031:1,2016-01-10T12:18:00Z,28.4073,-96.7122,0.46,1111122 
TCOON,ioos:station:TCOON:031:1,2016-01-10T13:18:00Z,28.4073,-96.7122,0.504,1111122 
TCOON,ioos:station:TCOON:031:1,2016-01-10T14:18:00Z,28.4073,-96.7122,0.524,1111122 
TCOON,ioos:station:TCOON:031:1,2016-01-10T15:18:00Z,28.4073,-96.7122,0.482,1111122 
TCOON,ioos:station:TCOON:031:1,2016-01-10T16:18:00Z,28.4073,-96.7122,0.459,1111122 
TCOON,ioos:station:TCOON:031:1,2016-01-10T17:24:00Z,28.4073,-96.7122,0.477,1111122 
TCOON,ioos:station:TCOON:031:1,2016-01-10T18:24:00Z,28.4073,-96.7122,0.478,1111122 
TCOON,ioos:station:TCOON:031:1,2016-01-10T19:24:00Z,28.4073,-96.7122,0.473,1111122 
TCOON,ioos:station:TCOON:031:1,2016-01-10T20:24:00Z,28.4073,-96.7122,0.462,1111122 
TCOON,ioos:station:TCOON:031:1,2016-01-10T21:18:00Z,28.4073,-96.7122,0.458,1111122 
TCOON,ioos:station:TCOON:031:1,2016-01-10T22:18:00Z,28.4073,-96.7122,0.449,1111122 
TCOON,ioos:station:TCOON:031:1,2016-01-10T23:18:00Z,28.4073,-96.7122,0.433,1111122 
TCOON,ioos:station:TCOON:031:1,2016-01-11T00:18:00Z,28.4073,-96.7122,0.419,1111122 
TCOON,ioos:station:TCOON:031:1,2016-01-11T01:18:00Z,28.4073,-96.7122,0.416,1111122 
TCOON,ioos:station:TCOON:031:1,2016-01-11T02:18:00Z,28.4073,-96.7122,0.413,1111122 
TCOON,ioos:station:TCOON:031:1,2016-01-11T03:24:00Z,28.4073,-96.7122,0.409,1111122 
TCOON,ioos:station:TCOON:031:1,2016-01-11T04:18:00Z,28.4073,-96.7122,0.43,1111122 
TCOON,ioos:station:TCOON:031:1,2016-01-11T05:18:00Z,28.4073,-96.7122,0.421,1111122 
TCOON,ioos:station:TCOON:031:1,2016-01-11T06:18:00Z,28.4073,-96.7122,0.421,1111122 
TCOON,ioos:station:TCOON:031:1,2016-01-11T07:18:00Z,28.4073,-96.7122,0.444,1111122 
TCOON,ioos:station:TCOON:031:1,2016-01-11T08:18:00Z,28.4073,-96.7122,0.442,1111122 
TCOON,ioos:station:TCOON:031:1,2016-01-11T09:24:00Z,28.4073,-96.7122,0.43,1111122 
TCOON,ioos:station:TCOON:031:1,2016-01-11T10:12:00Z,28.4073,-96.7122,0.417,1111122 
TCOON,ioos:station:TCOON:031:1,2016-01-11T11:18:00Z,28.4073,-96.7122,0.419,1111122 
TCOON,ioos:station:TCOON:031:1,2016-01-11T12:18:00Z,28.4073,-96.7122,0.43,1111122 
TCOON,ioos:station:TCOON:031:1,2016-01-11T13:18:00Z,28.4073,-96.7122,0.434,1111122 
TCOON,ioos:station:TCOON:031:1,2016-01-11T14:18:00Z,28.4073,-96.7122,0.431,1111122 
TCOON,ioos:station:TCOON:031:1,2016-01-11T15:18:00Z,28.4073,-96.7122,0.444,1111122 
TCOON,ioos:station:TCOON:031:1,2016-01-11T16:18:00Z,28.4073,-96.7122,0.446,1111122 
TCOON,ioos:station:TCOON:031:1,2016-01-11T17:18:00Z,28.4073,-96.7122,0.439,1111122 
TCOON,ioos:station:TCOON:031:1,2016-01-11T18:18:00Z,28.4073,-96.7122,0.44,1111122 
TCOON,ioos:station:TCOON:031:1,2016-01-11T19:18:00Z,28.4073,-96.7122,0.436,1111122 
TCOON,ioos:station:TCOON:031:1,2016-01-11T20:18:00Z,28.4073,-96.7122,0.42,1111122 
TCOON,ioos:station:TCOON:031:1,2016-01-11T21:24:00Z,28.4073,-96.7122,0.415,1111122 
TCOON,ioos:station:TCOON:031:1,2016-01-11T22:18:00Z,28.4073,-96.7122,0.438,1111122 
TCOON,ioos:station:TCOON:031:1,2016-01-11T23:18:00Z,28.4073,-96.7122,0.446,1111122 
TCOON,ioos:station:TCOON:031:1,2016-01-12T00:24:00Z,28.4073,-96.7122,0.447,1111122 
TCOON,ioos:station:TCOON:031:1,2016-01-12T01:18:00Z,28.4073,-96.7122,0.448,1111122 
TCOON,ioos:station:TCOON:031:1,2016-01-12T02:18:00Z,28.4073,-96.7122,0.463,1111122 
TCOON,ioos:station:TCOON:031:1,2016-01-12T03:18:00Z,28.4073,-96.7122,0.464,1111122 
TCOON,ioos:station:TCOON:031:1,2016-01-12T04:24:00Z,28.4073,-96.7122,0.484,1111122 
TCOON,ioos:station:TCOON:031:1,2016-01-12T05:18:00Z,28.4073,-96.7122,0.492,1111122 
TCOON,ioos:station:TCOON:031:1,2016-01-12T06:24:00Z,28.4073,-96.7122,0.489,1111122 
TCOON,ioos:station:TCOON:031:1,2016-01-12T07:18:00Z,28.4073,-96.7122,0.499,1111122 
TCOON,ioos:station:TCOON:031:1,2016-01-12T08:36:00Z,28.4073,-96.7122,0.517,1111122 
TCOON,ioos:station:TCOON:031:1,2016-01-12T09:30:00Z,28.4073,-96.7122,0.53,1111122 
TCOON,ioos:station:TCOON:031:1,2016-01-12T10:18:00Z,28.4073,-96.7122,0.528,1111122 
TCOON,ioos:station:TCOON:031:1,2016-01-12T11:18:00Z,28.4073,-96.7122,0.526,1111122 
TCOON,ioos:station:TCOON:031:1,2016-01-12T12:18:00Z,28.4073,-96.7122,0.534,1111122 
TCOON,ioos:station:TCOON:031:1,2016-01-12T13:30:00Z,28.4073,-96.7122,0.548,1111122 
TCOON,ioos:station:TCOON:031:1,2016-01-12T14:18:00Z,28.4073,-96.7122,0.552,1111122 
TCOON,ioos:station:TCOON:031:1,2016-01-13T00:30:00Z,28.4073,-96.7122,0.521,1111122 
TCOON,ioos:station:TCOON:031:1,2016-01-13T03:18:00Z,28.4073,-96.7122,0.516,1111122 
TCOON,ioos:station:TCOON:031:1,2016-01-13T04:24:00Z,28.4073,-96.7122,0.526,1111122 
TCOON,ioos:station:TCOON:031:1,2016-01-13T05:18:00Z,28.4073,-96.7122,0.524,1111122 
TCOON,ioos:station:TCOON:031:1,2016-01-13T06:24:00Z,28.4073,-96.7122,0.532,1111122 
TCOON,ioos:station:TCOON:031:1,2016-01-13T07:18:00Z,28.4073,-96.7122,0.537,1111122 
TCOON,ioos:station:TCOON:031:1,2016-01-13T08:24:00Z,28.4073,-96.7122,0.543,1111122 
TCOON,ioos:station:TCOON:031:1,2016-01-13T09:24:00Z,28.4073,-96.7122,0.552,1111122 
TCOON,ioos:station:TCOON:031:1,2016-01-13T10:18:00Z,28.4073,-96.7122,0.552,1111122 
TCOON,ioos:station:TCOON:031:1,2016-01-13T11:30:00Z,28.4073,-96.7122,0.555,1111122 
TCOON,ioos:station:TCOON:031:1,2016-01-13T12:30:00Z,28.4073,-96.7122,0.552,1111122 
TCOON,ioos:station:TCOON:031:1,2016-01-13T13:30:00Z,28.4073,-96.7122,0.553,1111122 
TCOON,ioos:station:TCOON:031:1,2016-01-13T14:24:00Z,28.4073,-96.7122,0.569,1111122 
TCOON,ioos:station:TCOON:031:1,2016-01-13T15:18:00Z,28.4073,-96.7122,0.565,1111122 
TCOON,ioos:station:TCOON:031:1,2016-01-13T17:12:00Z,28.4073,-96.7122,0.563,1111122 
TCOON,ioos:station:TCOON:031:1,2016-01-13T18:18:00Z,28.4073,-96.7122,0.565,1111122 
TCOON,ioos:station:TCOON:031:1,2016-01-13T19:18:00Z,28.4073,-96.7122,0.552,1111122 
TCOON,ioos:station:TCOON:031:1,2016-01-13T20:18:00Z,28.4073,-96.7122,0.542,1111122 
TCOON,ioos:station:TCOON:031:1,2016-01-13T21:18:00Z,28.4073,-96.7122,0.517,1111122 
TCOON,ioos:station:TCOON:031:1,2016-01-13T22:24:00Z,28.4073,-96.7122,0.51,1111122 
TCOON,ioos:station:TCOON:031:1,2016-01-13T23:42:00Z,28.4073,-96.7122,0.51,1111122 
TCOON,ioos:station:TCOON:031:1,2016-01-14T00:30:00Z,28.4073,-96.7122,0.504,1111122 
TCOON,ioos:station:TCOON:031:1,2016-01-14T01:18:00Z,28.4073,-96.7122,0.502,1111122 
TCOON,ioos:station:TCOON:031:1,2016-01-14T02:18:00Z,28.4073,-96.7122,0.501,1111122 
TCOON,ioos:station:TCOON:031:1,2016-01-14T03:18:00Z,28.4073,-96.7122,0.503,1111122 
TCOON,ioos:station:TCOON:031:1,2016-01-14T04:18:00Z,28.4073,-96.7122,0.51,1111122 
TCOON,ioos:station:TCOON:031:1,2016-01-14T05:18:00Z,28.4073,-96.7122,0.521,1111122 
TCOON,ioos:station:TCOON:031:1,2016-01-14T06:18:00Z,28.4073,-96.7122,0.527,1111122 
TCOON,ioos:station:TCOON:031:1,2016-01-14T07:18:00Z,28.4073,-96.7122,0.524,1111122 
TCOON,ioos:station:TCOON:031:1,2016-01-14T08:18:00Z,28.4073,-96.7122,0.534,1111122 
TCOON,ioos:station:TCOON:031:1,2016-01-14T09:36:00Z,28.4073,-96.7122,0.533,1111122 
TCOON,ioos:station:TCOON:031:1,2016-01-14T10:18:00Z,28.4073,-96.7122,0.55,1111122 
TCOON,ioos:station:TCOON:031:1,2016-01-14T11:18:00Z,28.4073,-96.7122,0.554,1111122 
TCOON,ioos:station:TCOON:031:1,2016-01-14T12:18:00Z,28.4073,-96.7122,0.56,1111122 
TCOON,ioos:station:TCOON:031:1,2016-01-14T13:18:00Z,28.4073,-96.7122,0.557,1111122 
TCOON,ioos:station:TCOON:031:1,2016-01-14T14:18:00Z,28.4073,-96.7122,0.58,1111122 
TCOON,ioos:station:TCOON:031:1,2016-01-14T15:18:00Z,28.4073,-96.7122,0.585,1111122 
TCOON,ioos:station:TCOON:031:1,2016-01-14T16:18:00Z,28.4073,-96.7122,0.587,1111122 
TCOON,ioos:station:TCOON:031:1,2016-01-14T17:18:00Z,28.4073,-96.7122,0.614,1111122 
TCOON,ioos:station:TCOON:031:1,2016-01-14T18:18:00Z,28.4073,-96.7122,0.607,1111122 
TCOON,ioos:station:TCOON:031:1,2016-01-14T19:18:00Z,28.4073,-96.7122,0.607,1111122 
TCOON,ioos:station:TCOON:031:1,2016-01-14T20:18:00Z,28.4073,-96.7122,0.611,1111122 
TCOON,ioos:station:TCOON:031:1,2016-01-14T21:18:00Z,28.4073,-96.7122,0.603,1111122 
TCOON,ioos:station:TCOON:031:1,2016-01-14T22:18:00Z,28.4073,-96.7122,0.603,1111122 
TCOON,ioos:station:TCOON:031:1,2016-01-14T23:18:00Z,28.4073,-96.7122,0.595,1111122 
TCOON,ioos:station:TCOON:031:1,2016-01-15T00:18:00Z,28.4073,-96.7122,0.601,1111122 
TCOON,ioos:station:TCOON:031:1,2016-01-15T01:18:00Z,28.4073,-96.7122,0.602,1111122 
TCOON,ioos:station:TCOON:031:1,2016-01-15T02:18:00Z,28.4073,-96.7122,0.595,1111122 
TCOON,ioos:station:TCOON:031:1,2016-01-15T03:24:00Z,28.4073,-96.7122,0.606,1111122 
TCOON,ioos:station:TCOON:031:1,2016-01-15T04:18:00Z,28.4073,-96.7122,0.621,1111122 
TCOON,ioos:station:TCOON:031:1,2016-01-15T05:18:00Z,28.4073,-96.7122,0.628,1111122 
TCOON,ioos:station:TCOON:031:1,2016-01-15T06:18:00Z,28.4073,-96.7122,0.623,1111122 
TCOON,ioos:station:TCOON:031:1,2016-01-15T07:18:00Z,28.4073,-96.7122,0.636,1111122 
TCOON,ioos:station:TCOON:031:1,2016-01-15T08:18:00Z,28.4073,-96.7122,0.643,1111122 
TCOON,ioos:station:TCOON:031:1,2016-01-15T09:36:00Z,28.4073,-96.7122,0.643,1111122 